www.pogodaiklimat.ru
ПОГОДА в Блок-Айленде
Время
и дата
17:56 28.01
18:56 28.01
19:56 28.01
20:56 28.01
21:56 28.01
22:56 28.01
23:56 28.01
00:56 29.01
01:56 29.01
02:56 29.01
03:56 29.01
04:56 29.01
05:56 29.01
06:56 29.01
07:56 29.01
08:56 29.01
09:56 29.01
10:56 29.01
11:56 29.01
12:56 29.01
13:56 29.01
14:56 29.01
15:56 29.01
16:56 29.01
17:56 29.01
18:56 29.01
19:56 29.01
20:56 29.01
21:56 29.01
22:56 29.01
23:56 29.01
00:56 30.01
01:56 30.01
02:56 30.01
03:56 30.01
04:56 30.01
05:56 30.01
06:56 30.01
07:56 30.01
08:56 30.01
09:56 30.01
10:56 30.01
11:56 30.01
12:56 30.01
13:56 30.01
14:56 30.01
15:56 30.01
16:56 30.01
Ветер
(напр.,м/с)
Видим. Явления Облачность Т
(С)
Тd
(С)
f
(%)
Тe
(С)
Тes
(С)
Комфортность P
(гПа)
Po
(гПа)
Тmin
(С)
Tmax
(С)
R
(мм)
R24
(мм)
S
(см)
ЮЗ 5 16 км ясно +6.1 +2.2 76 +2 +2 1025.5 1021.5
ЮЗ 5 16 км ясно +5.6 +2.2 79 +1 +1 1026.2 1022.2 +5.6 +8.9
ЮЗ 5 16 км ясно +5.6 +2.8 82 +1 +1 1026.6 1022.5
ЮЗ 4 16 км ясно +5.6 +2.2 79 +2 +2 1027.1 1023.2
ЮЗ 4 16 км ясно +5.0 +2.8 86 +1 +1 1027.3 1023.2
ЮЗ 5 16 км ясно +5.6 +3.3 85 +1 +1 1027.6 1023.5
ЮЗ 5 16 км ясно +5.6 +3.3 85 +1 +1 1027.4 1023.5
ЮЗ 5 16 км ясно +5.6 +3.3 85 +1 +1 1027.6 1023.5 +5.0 +6.1
ЮЗ 5 16 км ясно +6.1 +3.9 86 +2 +2 1027.8 1023.9
ЮЗ 4 16 км ясно +6.1 +4.4 89 +2 +2 1027.8 1023.9
Ю 4 16 км ясно +6.1 +4.4 89 +2 +2 1027.8 1023.9
Ю 4 16 км ясно +5.6 +4.4 92 +2 +2 1027.7 1023.5
Ю 4 16 км ясно +5.6 +5.0 96 +1 +1 1027.6 1023.5
Ю 4 16 км ясно +6.1 +5.0 93 +2 +2 1027.6 1023.5 +5.6 +6.1
Ю 5 16 км ясно +6.7 +5.6 93 +2 +2 1027.4 1023.5
Ю 6 16 км ясно +7.8 +5.0 82 +4 +4 1027.1 1023.2
Ю 6 16 км ясно +8.3 +6.1 86 +4 +5 1026.7 1022.5
Ю 6
{9}
16 км ясно +8.9 +6.1 83 +5 +7 1025.9 1021.9
Ю 8 16 км ясно +8.9 +6.1 83 +4 +5 1024.4 1020.5
Ю 8 16 км ясно +8.9 +6.1 83 +4 +6 1022.7 1018.8 +6.1 +9.4
Ю 6 16 км 2/2 1650 м +8.9 +6.1 83 +5 +7 1022.1 1018.1
Ю 6 16 км 5/0 3300 m
[Ac]
+8.9 +6.1 83 +5 +6 1021.3 1017.1
ЮЗ 8 16 км 10/10 1230 м +8.9 +6.1 83 +4 +4 1021.3 1017.1
ЮЗ 7
{11}
16 км 10/10 1050 м +9.4 +6.1 80 +5 +5 1020.9 1016.8
ЮЗ 5 16 км слабый дождь 10/10 1140 m
[Ns]
+8.9 +5.6 80 +5 +5 1021.0 1017.1
ЮЗ 8 16 км 10/0 2250 m
[Ac]
+8.9 +4.4 73 +5 +5 1020.4 1016.5 +8.3 +9.4
ЮЗ 8 16 км слабый дождь 10/0 2250 m
[Ac As]
+7.8 +4.4 79 +3 +3 1019.8 1015.8
ЮЗ 7 16 км 10/0 3000 m
[Ac]
+7.2 +3.9 80 +3 +3 1019.9 1015.8
ЮЗ 7 16 км 5/0 2700 m
[Ac]
+6.7 +4.4 85 +2 +2 1020.0 1016.1
ЮЗ 6 16 км ясно +6.1 +4.4 89 +1 +1 1020.5 1016.5
ЮЗ 5 16 км ясно +6.1 +3.3 82 +2 +2 1020.5 1016.5
ЮЗ 5 16 км 10/0 2400 m
[Ac]
+6.7 +2.8 76 +3 +3 1020.0 1016.1 +5.6 +8.9
З 5 16 км 10/0 2400 m
[Ac]
+6.1 +3.3 82 +2 +2 1020.6 1016.8
З 4 16 км 2/0 3000 m
[Ac]
+6.1 +2.2 76 +2 +2 1020.8 1016.8
З 4 16 км ясно +5.0 +2.8 86 +1 +1 1021.0 1017.1
З 4 16 км ясно +5.0 +2.8 86 +1 +1 1020.8 1016.8
З 3 16 км ясно +4.4 +2.8 89 +1 +1 1021.6 1017.5
З 2 16 км ясно +3.9 +2.2 89 +1 +1 1021.9 1017.8 +3.9 +6.7
З 3 16 км ясно +5.0 +2.8 86 +2 +2 1022.4 1018.5
З 3 16 км ясно +5.6 +3.3 85 +2 +3 1022.7 1018.8
З 2 16 км ясно +6.1 +2.8 79 +4 +6 1022.8 1018.8
З 2 16 км ясно +6.1 +2.8 79 +4 +8 1022.8 1018.8
нст 2 16 км ясно +8.3 +2.2 65 +7 +12 1021.5 1017.5
нст 3 16 км ясно +8.9 +2.8 66 +7 +12 1020.8 1016.8 +3.9 +8.9
ЮЗ 2 16 км ясно +8.9 +1.7 61 +7 +13 1020.0 1016.1
ЮЗ 4 16 км ясно +8.9 +1.1 58 +6 +9 1019.5 1015.4
Ю 4 16 км ясно +7.2 +2.2 71 +4 +5 1019.6 1015.4
ЮЗ 4 16 км ясно +5.6 +2.8 82 +2 +2 1019.8 1015.8
Местоположение метеостанции Block Island State Airport: широта 41.1695 долгота -71.5787 высота над уровнем моря 31 м.
В архиве по умолчанию представлена погода в Блок-Айленде за последние 1-2 суток. Обновление информации о фактической погоде в базе происходит ежечасно! Архивные данные за месяц целиком и за предыдущие месяцы Вы можете получить, выбрав интересующий диапазон дат из раскрывающегося списка и нажав кнопку "Ввод!".
Внимание! Архив погоды МЕТАР в базе сайта по станциям, не включенным в климатический монитор, хранится не более 60 дней. Нет смысла пытаться выбрать более раннюю дату.
*Определитесь, кто Вы:
Внимание! Время в таблицах - местное (без учета летнего времени). Для получения всемирного времени необходимо вычесть поправку, которая равна -5 ч.
Смотрите также архив погоды в соседних городах и на ближайших метеорологических станциях:
Партнеры нашего сайта:      
Пояснения к столбцам:
  • Ветер - указаны скорость ветра в м/с - средняя за 10 мин, порывы в срок и между сроками (в фигурных скобках) и направление, откуда дует ветер: С - северный,
  • СВ - северо-восточный, В - восточный, ЮВ - юго-восточный, Ю - южный, ЮЗ - юго-западный, З - западный, СЗ - северо-западный.
  • Видимость - горизонтальная дальность видимости в метрах или километрах. При видимости от 1 до 10 км при отсутствии осадков обычно наблюдается дымка, при ухудшении видимости до 1 км и менее - туман. В сухую погоду видимость может ухудшаться дымом, пылью или мглою.
  • Явления - указаны атмосферные явления, наблюдавшиеся в срок или в последний час перед сроком; фигурными скобками обозначены явления, наблюдавшиеся между сроками (за 1-3 часа до срока); квадратными скобками обозначены град или гололедные отложения с указанием их диаметра в мм.
  • Облачность - указаны через наклонную черту общая и нижняя облачность в баллах и высота нижней границы облаков в метрах; квадратными скобками обозначены формы облаков: Ci - перистые, Cs - перисто-слоистые, Cc - перисто-кучевые, Ac - высококучевые, As - высокослоистые, Sc - слоисто-кучевые, Ns - слоисто-дождевые, Cu - кучевые, Cb - кучево-дождевые. Подробнее классификацию облаков см. в Атласе облаков (PDF).
  • T - Температура воздуха - температура, измеренная на высоте 2 м над землей.
  • Td - Температура точки росы - температура, при понижении до которой содержащийся в воздухе водяной пар достигнет насыщения.
  • f - Относительная влажность воздуха - влажноcть воздуха, измеренная на высоте 2 м над землей.
  • Te - Эффективная температура - температура, которую ощущает одетый по сезону человек в тени. Характеристика душности погоды. При расчете учитывается влияние влажности воздуха и скорости ветра на теплоощущения человека.
  • Tes - Эффективная температура на солнце - температура, которую ощущает человек, с поправкой на солнечный нагрев. Характеристика знойности погоды. Зависит от высоты солнца над горизонтом, облачности и скорости ветра. Ночью, в пасмурную погоду, а также при ветре 12 м/с и более поправка равна нулю.
  • P - Атмосферное давление - приведенное к уровню моря атмосферное давление.
  • Po - Атмосферное давление - измеренное на уровне метеостанции атмосферное давление.
  • Tmin - Минимальная температура - минимум температуры воздуха на высоте 2 м над землей.
  • Tmax - Максимальная температура - максимум температуры воздуха на высоте 2 м над землей.
  • R - Количество осадков - Количество выпавших осадков за период времени, мм. При наведении курсора мыши на число - период времени, за который выпало указанное количество осадков.
  • R24 - Количество осадков - Количество выпавших осадков за 24 часа, мм.
  • S - Снежный покров - Высота снежного покрова, см. При наведении курсора мыши на число - состояние снежного покрова и степень покрытия местности в баллах.